Location: Sweet Grass
(48.9965°N, 111.9649°W)
Time: 13:38:11
(UTC+00:00)

Envisat - Pass Details

Date: 06 December 2022
Orbit: 763 x 765 km, 98.2° (Epoch: 06 February)

Event Time Altitude Azimuth Distance (km) Brightness Sun altitude
Rises 10:48:33 0° 23° (NNE) 3,245 6.6 -41.2°
Reaches altitude 10° 10:51:13 10° 36° (NE) 2,314 5.9 -40.8°
Enters shadow 10:51:47 13° 40° (NE) 2,136 5.7 -40.7°
